[[{"header":{"parameterUnit":"m.s-1","parameterCategory":1,"la1":30.2991,"la2":30.254,"lo1":-89.0895,"lo2":-89.0444,"dy":0.0017,"dx":0.0017,"nx":28,"ny":28,"refTime":"2023-03-27T15:00:00:Z","depth":0,"parameterNumber":2,"parameterNumberName":"U-component_of_WINDS"},"data":[0,0,0,0,0,0,0,0,0,0,0,0,0,0,0,0,0,0,0,0,0,0,0,0,0,0,0,0,0,0,0,0,0,0,0,0,0,0,0,0,0,0,0,0,0,0,0,0,0,0,0,0,0,0,0,0,0,0,-1.037,-1.037,0,-1.0423,-1.0424,-1.0424,-1.0409,-1.0408,-1.0407,-1.0406,-1.0462,-1.0465,-1.0467,0,0,0,0,0,0,0,0,0,0,0,0,0,-1.0255,-1.0258,-1.037,-1.037,-1.0371,-1.0423,-1.0424,-1.0424,-1.0409,-1.0408,-1.0407,-1.0405,-1.0462,-1.0465,-1.0468,0,0,0,0,0,0,0,0,0,0,0,0,0,-1.0307,-1.0258,-1.0369,-1.037,-1.037,-1.0423,-1.0424,-1.0425,-1.041,-1.0408,-1.0406,-1.0405,-1.0461,-1.0464,-1.0468,-1.0524,0,0,-1.048,-1.0481,0,0,0,0,0,0,0,0,-1.0304,-1.0311,-1.0369,-1.037,-1.037,-1.0408,-1.0404,-1.0458,-1.041,-1.0395,-1.0406,-1.0404,-1.0446,-1.0451,-1.0464,-1.0527,-1.0529,-1.048,-1.0482,-1.0484,-1.0485,0,0,0,0,0,0,0,-1.03,-1.0308,-1.0391,-1.037,-1.0371,-1.0367,-1.0373,-1.0414,-1.0429,-1.0396,-1.0395,-1.0401,-1.0446,-1.0461,-1.0465,-1.053,-1.048,-1.0483,-1.0485,-1.0487,-1.0641,-1.0643,0,0,0,0,0,0,-1.0296,-1.0306,-1.0389,-1.0392,-1.0332,-1.0371,-1.0377,-1.0397,-1.0428,-1.0431,-1.0403,-1.0401,-1.0455,-1.0461,-1.0467,-1.0536,-1.0484,-1.0487,-1.0489,-1.064,-1.0642,-1.0644,0,0,0,0,0,0,-1.0294,-1.0304,-1.0387,-1.0349,-1.0359,-1.0374,-1.0398,-1.0399,-1.0414,-1.0433,-1.0436,-1.0415,-1.0454,-1.0462,-1.051,-1.0538,-1.0489,-1.0492,-1.0638,-1.064,-1.0643,-1.0673,0,0,0,0,0,0,-1.029,-1.0303,-1.0324,-1.0349,-1.0361,-1.0429,-1.0399,-1.0402,-1.0421,-1.0418,-1.0446,-1.0449,-1.0453,-1.0505,-1.0514,-1.0542,-1.0495,-1.0635,-1.0639,-1.0642,-1.0669,-1.0676,-1.0682,0,0,0,0,0,-1.0286,-1.0331,-1.0325,-1.0335,-1.0388,-1.043,-1.0437,-1.0441,-1.0423,-1.0445,-1.0457,-1.0448,-1.0532,-1.051,-1.052,-1.055,-1.0634,-1.0638,-1.0642,-1.0667,-1.0675,-1.0682,0,0,0,0,0,0,-1.0309,-1.0334,-1.0328,-1.0382,-1.0404,-1.0428,-1.0455,-1.0449,-1.0477,-1.0474,-1.0477,-1.0484,-1.0533,-1.0546,-1.052,-1.0605,-1.058,-1.0587,-1.0596,-1.0604,-1.061,-1.0607,-1.0499,0,0,0,0,0,-1.032,-1.0352,-1.0372,-1.0418,-1.0429,-1.044,-1.0459,-1.0459,-1.0482,-1.0492,-1.0508,-1.0531,-1.0562,-1.0584,-1.0614,-1.067,-1.0677,-1.0696,-1.0702,-1.0707,-1.0713,-1.0744,-1.0753,-1.0657,-1.0657,-1.0657,0,0,-1.0344,-1.0362,-1.0382,-1.0423,-1.044,-1.0473,-1.0448,-1.0484,-1.0509,-1.0498,-1.0544,-1.0556,-1.0582,-1.0635,-1.0659,-1.0647,-1.0741,-1.0712,-1.0716,-1.072,-1.075,-1.0759,-1.0767,-1.066,-1.066,-1.0659,0,0,-1.0405,-1.0421,-1.0461,-1.0478,-1.0504,-1.0511,-1.052,-1.0545,-1.0552,-1.0598,-1.059,-1.062,-1.0674,-1.0693,-1.071,-1.0777,-1.077,-1.0786,-1.082,-1.085,-1.0858,-1.0865,-1.0889,-1.0898,-1.0792,-1.0792,-1.0792,0,-1.0431,-1.0481,-1.0482,-1.0519,-1.0537,-1.0527,-1.0568,-1.0585,-1.062,-1.0633,-1.0618,-1.0686,-1.0703,-1.076,-1.0777,-1.079,-1.0802,-1.0784,-1.0856,-1.0863,-1.087,-1.0893,-1.0902,-1.0794,-1.0794,-1.0793,-1.0793,0,-1.0513,-1.0547,-1.0576,-1.0609,-1.0631,-1.0669,-1.0677,-1.0698,-1.0697,-1.0705,-1.0753,-1.0772,-1.0806,-1.0819,-1.0819,-1.0877,-1.0868,-1.0855,-1.0831,-1.0881,-1.0903,-1.0912,-1.0797,-1.0796,-1.0795,-1.0795,0,0,-1.0591,-1.0623,-1.0634,-1.0649,-1.0676,-1.0703,-1.0741,-1.0774,-1.0793,-1.0816,-1.0849,-1.0894,-1.0882,-1.0901,-1.0902,-1.0929,-1.0981,-1.0912,-1.0913,-1.0925,-1.1047,-1.1058,-1.1068,-1.0976,-1.0977,-1.0979,-1.1045,0,-1.0655,-1.0722,-1.0723,-1.0785,-1.0817,-1.0807,-1.084,-1.086,-1.0869,-1.0897,-1.0907,-1.094,-1.092,-1.0932,-1.0957,-1.0969,-1.1006,-1.0964,-1.1007,-1.1008,-1.1002,-1.108,-1.1092,-1.1154,-1.1054,-1.1055,-1.1056,0,-1.0739,-1.0765,-1.0829,-1.0851,-1.0865,-1.0895,-1.0925,-1.0952,-1.0975,-1.0979,-1.1,-1.0996,-1.1035,-1.1008,-1.1062,-1.1034,-1.1051,-1.1059,-1.1062,-1.1067,-1.1037,-1.1089,-1.1173,-1.1183,-1.107,-1.1069,-1.1068,0,-1.0791,-1.0842,-1.0887,-1.09,-1.0927,-1.0948,-1.096,-1.0981,-1.1001,-1.1027,-1.104,-1.107,-1.1087,-1.1111,-1.1116,-1.1095,-1.117,-1.1143,-1.1176,-1.1176,-1.1194,-1.1193,-1.1284,-1.1202,-1.1202,-1.1202,-1.1202,0,-1.0864,-1.0904,-1.0911,-1.0939,-1.0984,-1.0985,-1.1029,-1.1039,-1.1058,-1.1088,-1.1081,-1.1109,-1.1113,-1.1143,-1.1147,-1.1192,-1.1199,-1.1204,-1.1205,-1.1206,-1.1205,-1.1219,-1.1215,-1.1204,-1.1204,-1.1203,-1.1203,0,-1.093,-1.0937,-1.0986,-1.1006,-1.1013,-1.1045,-1.1063,-1.109,-1.1097,-1.1135,-1.1144,-1.1155,-1.119,-1.1196,-1.1237,-1.1239,-1.1293,-1.1289,-1.1285,-1.1286,-1.1318,-1.1316,-1.1422,-1.1437,-1.1344,-1.1345,-1.1346,0,-1.0977,-1.1008,-1.1031,-1.1051,-1.1064,-1.1095,-1.1115,-1.1117,-1.1137,-1.1165,-1.1189,-1.1222,-1.1249,-1.1304,-1.1316,-1.1347,-1.1345,-1.138,-1.1349,-1.1349,-1.1347,-1.1345,-1.1349,-1.1386,-1.1387,-1.1388,-1.1389,0,-1.1059,-1.1061,-1.1089,-1.1118,-1.1142,-1.1165,-1.1187,-1.1203,-1.1208,-1.1232,-1.1267,-1.1287,-1.1328,-1.1362,-1.1392,-1.1405,-1.1398,-1.1398,-1.1407,-1.1409,-1.1406,-1.1409,-1.1303,-1.1396,-1.1395,-1.1394,-1.1394,-1.1394,-1.1119,-1.1145,-1.1166,-1.1198,-1.1214,-1.1235,-1.1261,-1.1271,-1.13,-1.1333,-1.1332,-1.137,-1.1392,-1.1432,-1.1447,-1.1477,-1.1466,-1.1479,-1.1483,-1.1487,-1.149,-1.14,-1.1482,-1.1482,-1.1482,-1.1482,-1.1481,0,-1.1202,-1.1214,-1.1243,-1.1274,-1.1299,-1.1289,-1.1312,-1.1334,-1.1368,-1.1388,-1.1414,-1.1454,-1.1486,-1.15,-1.1531,-1.1553,-1.155,-1.1561,-1.156,-1.1564,-1.1498,-1.1487,-1.1563,-1.1563,-1.1563,-1.1562,-1.1562,-1.1562,-1.1248,-1.1293,-1.1296,-1.1349,-1.1362,-1.1399,-1.1413,-1.1432,-1.1448,-1.1493,-1.1519,-1.1528,-1.1546,-1.1578,-1.1607,-1.1611,-1.1623,-1.1636,-1.1638,-1.1576,-1.1568,-1.156,-1.155,-1.1638,-1.1638,-1.1701,-1.1702,-1.1702]},{"header":{"parameterUnit":"m.s-1","parameterCategory":1,"la1":30.2991,"la2":30.254,"lo1":-89.0895,"lo2":-89.0444,"dy":0.0017,"dx":0.0017,"nx":28,"ny":28,"refTime":"2023-03-27T15:00:00:Z","depth":0,"parameterNumber":3,"parameterNumberName":"V-component_of_WINDS"},"data":[0,0,0,0,0,0,0,0,0,0,0,0,0,0,0,0,0,0,0,0,0,0,0,0,0,0,0,0,0,0,0,0,0,0,0,0,0,0,0,0,0,0,0,0,0,0,0,0,0,0,0,0,0,0,0,0,0,0,-5.6735,-5.6736,0,-5.6902,-5.6904,-5.6906,-5.6864,-5.6861,-5.6857,-5.6854,-5.7025,-5.7032,-5.704,0,0,0,0,0,0,0,0,0,0,0,0,0,-5.6378,-5.6385,-5.6734,-5.6736,-5.6739,-5.6902,-5.6904,-5.6906,-5.6865,-5.6861,-5.6857,-5.6853,-5.7023,-5.7032,-5.7041,0,0,0,0,0,0,0,0,0,0,0,0,0,-5.6538,-5.6387,-5.6734,-5.6737,-5.6739,-5.6901,-5.6904,-5.6907,-5.6865,-5.686,-5.6856,-5.6851,-5.702,-5.7031,-5.7042,-5.721,0,0,-5.7077,-5.7082,0,0,0,0,0,0,0,0,-5.6529,-5.6551,-5.6735,-5.6737,-5.674,-5.6857,-5.6841,-5.7009,-5.6867,-5.6818,-5.6854,-5.6849,-5.6973,-5.6988,-5.703,-5.7218,-5.7226,-5.7078,-5.7085,-5.709,-5.7093,0,0,0,0,0,0,0,-5.6518,-5.6544,-5.6801,-5.6738,-5.6741,-5.673,-5.6748,-5.6872,-5.6921,-5.6821,-5.6819,-5.6839,-5.6974,-5.7019,-5.7034,-5.7228,-5.7077,-5.7088,-5.7095,-5.7099,-5.7565,-5.757,0,0,0,0,0,0,-5.6505,-5.6535,-5.6795,-5.6806,-5.662,-5.6741,-5.676,-5.6824,-5.6919,-5.6929,-5.6843,-5.6837,-5.7002,-5.7021,-5.704,-5.7245,-5.7089,-5.71,-5.7107,-5.7559,-5.7566,-5.7572,0,0,0,0,0,0,-5.6497,-5.6528,-5.6789,-5.667,-5.6702,-5.6752,-5.6825,-5.683,-5.6876,-5.6936,-5.6944,-5.6881,-5.6999,-5.7024,-5.7169,-5.725,-5.7105,-5.7116,-5.7553,-5.7561,-5.7569,-5.7656,0,0,0,0,0,0,-5.6487,-5.6526,-5.6591,-5.6671,-5.6708,-5.6915,-5.683,-5.6837,-5.6896,-5.6889,-5.6974,-5.6983,-5.6997,-5.7152,-5.718,-5.7263,-5.7124,-5.7546,-5.7556,-5.7566,-5.7646,-5.7666,-5.7683,0,0,0,0,0,-5.6475,-5.6608,-5.6594,-5.6626,-5.679,-5.692,-5.6941,-5.6955,-5.6903,-5.6968,-5.7007,-5.698,-5.7236,-5.7167,-5.7198,-5.7286,-5.7541,-5.7553,-5.7565,-5.7637,-5.7662,-5.7683,0,0,0,0,0,0,-5.6535,-5.6618,-5.6604,-5.6767,-5.6837,-5.6913,-5.6996,-5.698,-5.7066,-5.7056,-5.7069,-5.7088,-5.7237,-5.7276,-5.7197,-5.7455,-5.7381,-5.74,-5.7425,-5.7449,-5.7467,-5.7455,-5.7134,0,0,0,0,0,-5.6567,-5.6666,-5.6733,-5.6871,-5.6906,-5.6945,-5.7002,-5.7007,-5.7079,-5.7109,-5.7157,-5.7229,-5.7325,-5.7389,-5.7481,-5.765,-5.7669,-5.7726,-5.7745,-5.776,-5.7777,-5.7871,-5.7898,-5.7613,-5.7613,-5.7612,0,0,-5.6635,-5.6693,-5.6754,-5.6884,-5.6939,-5.7041,-5.697,-5.7081,-5.7157,-5.7125,-5.7266,-5.7304,-5.7384,-5.7543,-5.7615,-5.758,-5.786,-5.7776,-5.7787,-5.7796,-5.7887,-5.7914,-5.7938,-5.7621,-5.762,-5.7618,0,0,-5.6811,-5.6864,-5.6985,-5.7042,-5.7125,-5.715,-5.7179,-5.7258,-5.7283,-5.7424,-5.7403,-5.7493,-5.7658,-5.7717,-5.7769,-5.7968,-5.7947,-5.7997,-5.8095,-5.8187,-5.8209,-5.823,-5.8302,-5.8328,-5.8013,-5.8014,-5.8014,0,-5.6885,-5.7038,-5.7049,-5.7163,-5.7221,-5.7198,-5.7321,-5.7375,-5.7484,-5.7525,-5.7483,-5.7692,-5.7744,-5.7917,-5.7966,-5.8007,-5.8042,-5.7988,-5.8205,-5.8226,-5.8244,-5.8314,-5.8341,-5.8019,-5.8019,-5.8018,-5.8017,0,-5.7125,-5.7232,-5.732,-5.7427,-5.7495,-5.7613,-5.7642,-5.771,-5.7708,-5.7738,-5.7883,-5.7944,-5.8049,-5.809,-5.8089,-5.8264,-5.8239,-5.8202,-5.8128,-5.8277,-5.8343,-5.837,-5.8027,-5.8025,-5.8024,-5.8022,0,0,-5.7345,-5.7458,-5.749,-5.7539,-5.763,-5.7712,-5.7829,-5.7932,-5.799,-5.8066,-5.8165,-5.8306,-5.8272,-5.8331,-5.8336,-5.8417,-5.8573,-5.8369,-5.8371,-5.8407,-5.877,-5.88,-5.8831,-5.8559,-5.8564,-5.8568,-5.8764,0,-5.7531,-5.7737,-5.7752,-5.7938,-5.8038,-5.8016,-5.8118,-5.8185,-5.8216,-5.8304,-5.8337,-5.8438,-5.8384,-5.842,-5.8498,-5.8537,-5.8646,-5.8523,-5.8652,-5.8657,-5.8635,-5.8865,-5.8896,-5.9079,-5.879,-5.8794,-5.8797,0,-5.7776,-5.786,-5.8057,-5.8135,-5.8177,-5.8269,-5.8365,-5.845,-5.8525,-5.8542,-5.8607,-5.8602,-5.8722,-5.8643,-5.8809,-5.8725,-5.8778,-5.8805,-5.8813,-5.8827,-5.8738,-5.8887,-5.9137,-5.9165,-5.8838,-5.8834,-5.8831,0,-5.7919,-5.8082,-5.8221,-5.8263,-5.8357,-5.8422,-5.8464,-5.8534,-5.8596,-5.868,-5.872,-5.8816,-5.887,-5.8944,-5.8965,-5.8905,-5.9132,-5.9054,-5.915,-5.915,-5.9201,-5.9198,-5.9465,-5.9232,-5.9231,-5.9231,-5.923,0,-5.8126,-5.8248,-5.8287,-5.8373,-5.8509,-5.8524,-5.8658,-5.8696,-5.8759,-5.8852,-5.8838,-5.8926,-5.8947,-5.9039,-5.9056,-5.9192,-5.9216,-5.9233,-5.9237,-5.9236,-5.9234,-5.9273,-5.9261,-5.9238,-5.9236,-5.9235,-5.9234,0,-5.831,-5.8341,-5.8492,-5.8568,-5.859,-5.8687,-5.8753,-5.8836,-5.8864,-5.8982,-5.9011,-5.9056,-5.9164,-5.9191,-5.9319,-5.9331,-5.9492,-5.9482,-5.9467,-5.9468,-5.9564,-5.9555,-5.9867,-5.9909,-5.9646,-5.9648,-5.965,0,-5.8441,-5.8535,-5.8622,-5.8684,-5.8729,-5.8828,-5.8891,-5.8909,-5.8975,-5.9068,-5.914,-5.9246,-5.9332,-5.9505,-5.9549,-5.9647,-5.9641,-5.9743,-5.9656,-5.9653,-5.9645,-5.9641,-5.9651,-5.9761,-5.9764,-5.9766,-5.9768,0,-5.8672,-5.8683,-5.8774,-5.8872,-5.8948,-5.9025,-5.9099,-5.9151,-5.9179,-5.9254,-5.9364,-5.9431,-5.9562,-5.9668,-5.9767,-5.981,-5.9795,-5.9795,-5.9823,-5.9824,-5.9812,-5.9822,-5.9515,-5.9788,-5.9786,-5.9784,-5.9783,-5.9782,-5.8835,-5.8918,-5.8993,-5.9095,-5.9153,-5.9223,-5.9305,-5.9344,-5.9437,-5.9546,-5.955,-5.9671,-5.9744,-5.9876,-5.9924,-6.0019,-5.9988,-6.0028,-6.0038,-6.0049,-6.0058,-5.9796,-6.0036,-6.0036,-6.0035,-6.0035,-6.0035,0,-5.9067,-5.9114,-5.9208,-5.9313,-5.9394,-5.9372,-5.9453,-5.9523,-5.9629,-5.9699,-5.9784,-5.9912,-6.0014,-6.0066,-6.0169,-6.0234,-6.023,-6.0261,-6.0257,-6.0268,-6.0079,-6.0046,-6.0263,-6.0263,-6.0263,-6.0263,-6.0262,-6.0262,-5.9197,-5.9337,-5.9357,-5.9525,-5.9571,-5.9689,-5.9738,-5.9803,-5.9859,-6.0002,-6.0088,-6.0121,-6.0184,-6.0291,-6.0384,-6.0397,-6.0436,-6.0472,-6.0481,-6.0304,-6.0281,-6.0259,-6.0228,-6.0479,-6.048,-6.0662,-6.0664,-6.0665]}]]